Portada
METAR-TAF:

METAR-TAF

Aeropuertos :

Nenana, Alaska, Estados Unidos

latitud: 64-33N, longitud: 149-05W, altitud: 110 m

Observación

El informe se hizo hace 21 minutos, a las 04:53 UTC
Viento calma
Temperatura 20°C
Humedad 53%
Presión 1022 hPa
Visibilidad: 16.1 km
Cielo despejado

METAR: PANN 250453Z AUTO 00000KT 10SM CLR 20/10 A3019 RMK AO2 SLP228 T02000100 TSNO

Hora: 21:14 (05:14 UTC)


TAF: falta

Observaciones y pronósticos meteorológicos de más de 4000 aeropuertos (mensajes METAR y TAF).

Los puntos amarillos y rojos representan las estaciones disponibles.

Ponga el ratón en el punto deseado para ver el nombre de la estación.

Haga clic para ver las observaciones y los pronósticos meteorológicos.

Para cambiar el mapa : haga clic en los botones verdes con una cruz de color negro para hacer un zoom, en el botón verde con un guión para alejar o en las flechas verdes para mapas adyacentes.


METAR-TAF: